Location: McFarlands Corners
(41.4117°N, 81.3382°W)
Time: 07:51:37
(UTC+00:00)

Vanguard 1 Rocket - Visible Passes

Search period start: 16 February 2026 00:00
Search period end: 26 February 2026 00:00
Orbit: 652 x 4215 km, 34.3° (Epoch: 12 February)

Date Brightness Start Highest point End Pass type
(mag) Time Alt. Az. Time Alt. Az. Time Alt. Az.
16 Feb 11.1 00:53:18 10° W 01:12:50 47° SSW 01:36:24 10° SSE visible
16 Feb 11.6 03:27:07 10° W 03:41:54 19° SW 03:54:56 12° SSW visible
16 Feb 10.9 23:39:26 10° W 23:57:14 56° SSW 00:22:13 10° SE visible
17 Feb 11.5 02:09:11 10° W 02:27:22 30° SW 02:47:05 10° S visible
18 Feb 11.3 00:53:51 10° W 01:12:16 41° SW 01:34:59 10° SSE visible
18 Feb 11.8 03:30:21 10° WSW 03:41:05 14° SW 03:51:56 10° SSW visible
18 Feb 11.0 23:39:54 10° W 23:56:54 51° SSW 00:21:09 10° SE visible
19 Feb 11.7 02:10:27 10° W 02:26:38 25° SW 02:44:31 10° S visible
20 Feb 11.4 00:54:36 10° W 01:11:44 35° SW 01:33:11 10° SSE visible
20 Feb 11.2 23:40:28 10° W 23:56:35 45° SSW 00:19:48 10° SSE visible
21 Feb 11.8 02:12:29 10° W 02:26:00 19° SW 02:41:02 10° S visible
22 Feb 11.6 00:55:39 10° W 01:11:14 29° SW 01:30:53 10° S visible
22 Feb 11.3 23:41:12 10° W 23:56:18 38° SSW 00:18:06 10° SSE visible
23 Feb 12.0 02:16:05 10° WSW 02:25:30 14° SW 02:35:47 10° SSW visible
24 Feb 11.8 00:57:12 10° W 01:10:51 23° SW 01:27:54 10° S visible
24 Feb 11.5 23:42:09 10° W 23:56:05 32° SSW 00:15:59 10° SSE visible
